Regional Weather Roundup
Issued by NWS

Home | Current Version | Previous Version | Text Only | Print | Product List | Glossary Off
Versions: 1 2 3 4 5 6 7 8 9 10 11 12 13 14 15 16 17 18 19 20 21 22 23 24 25 26 27 28 29 30 31 32 33 34 35 36 37 38 39 40 41 42 43 44 45 46 47 48 49 50

000
ASUS43 KBIS 191210
RWRND

NORTH DAKOTA REGIONAL WEATHER ROUNDUP
NATIONAL WEATHER SERVICE BISMARCK ND
700 AM CDT SAT AUG 19 2017

NOTE: "FAIR" INDICATES FEW OR NO CLOUDS BELOW 12,000 FEET WITH NO
SIGNIFICANT WEATHER AND/OR OBSTRUCTIONS TO VISIBILITY.


NDZ001>003-009>011-017-191300-
NORTHWEST NORTH DAKOTA

CITY           SKY/WX    TMP DP  RH WIND       PRES   REMARKS
WILLISTON      CLEAR     61  52  72 SW6       29.74F
6HR MIN TEMP:  59; 6HR MAX TEMP:  69;

MINOT          CLEAR     67  54  63 S12       29.76F
MINOT AFB      CLEAR     65  54  67 S13       29.74F
$$

NDZ018>021-031>035-040>046-191300-
SOUTHWEST NORTH DAKOTA

CITY           SKY/WX    TMP DP  RH WIND       PRES   REMARKS
BISMARCK       CLEAR     57  55  93 E7        29.85F
6HR MIN TEMP:  57; 6HR MAX TEMP:  62;

DICKINSON      CLEAR     58  51  78 S15       29.79F
GARRISON         N/A     59  55  87 S8        29.80F
6HR MIN TEMP:  55; 6HR MAX TEMP:  61;

HETTINGER ARPT CLEAR     56  49  77 SE6       29.86S
$$

NDZ004>008-012>016-024-026-027-054-191300-
NORTHEAST NORTH DAKOTA

CITY           SKY/WX    TMP DP  RH WIND       PRES   REMARKS
GRAND FORKS    CLEAR     55  54  96 S6        29.83R
GRND FRKS AFB  CLEAR     57  53  87 SW6       29.84R
$$

NDZ022-023-025-028>030-036>039-047>053-191300-
SOUTHEAST NORTH DAKOTA

CITY           SKY/WX    TMP DP  RH WIND       PRES   REMARKS
FARGO          CLEAR     59  58  96 S7        29.88R
6HR MIN TEMP:  58; 6HR MAX TEMP:  65;

JAMESTOWN      CLEAR     58  54  86 SW6       29.87S
$$





USA.gov is the U.S. government's official web portal to all federal, state and local government web resources and services.